COSMOS 1375 DEB

Satellite information

Favourite Embed

Satellite Type and Status

DEBRISIN ORBIT

Key statistics

Satellite COSMOS 1375 DEB at a glance.

Uptime

15896

Days in orbit

Revolutions

≈ 13.6

Per day

Orbit

LEO

Low Earth Orbit

Inclination

65.8

Latest

Satellite identification and parameters

Extended collection of information and parameters for COSMOS 1375 DEB.

Object identification

Identified? True

Debris? True

Object name: COSMOS 1375 DEB

International designator: 1982-055AM

Object number (NORAD): 17795

Object ID (CCSDS): 17795

Country: COMMONWEALTH OF INDEPENDENT STATES (CIS)

Current information (Y/N): Y

RCS size: SMALL

Orbital parameters

Period: 105.893 minutes

Inclination: 65.8351 deg

SMA: 7414.324 km

Apoapsis: 1096.055 km

Periapsis: 976.324 km

RAAN: 350.2953 deg

Eccentricy: 0.00807428

Argument of periapsis: 270.3478 deg

Mean anomaly: 100.7779 deg

Mean motion: 13.59863751 rev/day

Mean motion (dot): -0.00000012 rev/day2

B* drag term: 0.000086667492 1/REarth

Two-line elements (TLE)

Creation date: Dec. 12, 2025, 10:14 a.m.

Reference frame: TEME

Reference center: EARTH

Epoch: Dec. 12, 2025, 7:26 a.m. UTC

TLE line 0: 0 COSMOS 1375 DEB

TLE line 1: 1 17795U 82055AM 25346.31035535 -.00000012 00000-0 86667-4 0 9995

TLE line 2: 2 17795 65.8351 350.2953 0080743 270.3478 100.7779 13.59863751992817

Live tracking on map

Real-time ground track for satellite COSMOS 1375 DEB.

In-orbit conjunctions

A list of the most updated potential collisions computed for object COSMOS 1375 DEB.

Target Orbit TCA Probability of collision Miss distance Type
COSMOS 886 DEB LEO 2025-02-12 08:27:07 0.0003844798 37.0 (m) DEBRIS
SL-8 R/B LEO 2024-10-16 22:01:44 0.0001532752 416.0 (m) ROCKET BODY
NIMBUS 2 DEB SSO 2024-08-29 02:31:29 0.0001051687 78.0 (m) DEBRIS

Associated space launch

ASAT target satellite

COSMOS 1375 DEB was lifted into orbit during the mission ‘Kosmos-3M | DS-P1-M 16’, on board a Kosmos-3M space rocket.

The launch took place on June 6, 1982, 5:10 p.m. from 132/2.

For more information about the launch, click the button.

Launch to space Kosmos-3M | DS-P1-M 16
Kosmos-3M | DS-P1-M 16

Agency: N/A

Status: Launch Successful

Launch date: June 6, 1982, 5:10 p.m. UTC

Rocket: Kosmos-3M

Launch pad: 132/2

Location: Plesetsk Cosmodrome, Russian Federation

...

Latest news about this satellite

There are no fresh news available about this satellite. Check back as we update our databases every day.


Newsletter sign-up

Weekly statistics, charts and insights to help you stay on top of the space industry.